Year,Month,Day,Hour,Minute,Value (Times are PST for temperature in C)
2014,09,24,00,00,15.30
2014,09,24,00,01,15.30
2014,09,24,00,02,15.30
2014,09,24,00,03,15.30
2014,09,24,00,04,15.30
2014,09,24,00,05,15.30
2014,09,24,00,06,15.30
2014,09,24,00,07,15.30
2014,09,24,00,08,15.30
2014,09,24,00,09,15.30
2014,09,24,00,10,15.30
2014,09,24,00,11,15.30
2014,09,24,00,12,15.30
2014,09,24,00,13,15.30
2014,09,24,00,14,15.30
2014,09,24,00,15,15.30
2014,09,24,00,16,15.30
2014,09,24,00,17,15.30
2014,09,24,00,18,15.30
2014,09,24,00,19,15.30
2014,09,24,00,20,15.30
2014,09,24,00,21,15.30
2014,09,24,00,22,15.40
2014,09,24,00,23,15.40
2014,09,24,00,24,15.40
2014,09,24,00,25,15.40
2014,09,24,00,26,15.40
2014,09,24,00,27,15.40
2014,09,24,00,28,15.40
2014,09,24,00,29,15.40
2014,09,24,00,30,15.40
2014,09,24,00,31,15.50
2014,09,24,00,32,15.50
2014,09,24,00,33,15.50
2014,09,24,00,34,15.40
2014,09,24,00,35,15.40
2014,09,24,00,36,15.40
2014,09,24,00,37,15.40
2014,09,24,00,38,15.40
2014,09,24,00,39,15.40
2014,09,24,00,40,15.40
2014,09,24,00,41,15.40
2014,09,24,00,42,15.40
2014,09,24,00,43,15.40
2014,09,24,00,44,15.40
2014,09,24,00,45,15.40
2014,09,24,00,46,15.40
2014,09,24,00,47,15.40
2014,09,24,00,48,15.40
2014,09,24,00,49,15.40
2014,09,24,00,50,15.40
2014,09,24,00,51,15.40
2014,09,24,00,52,15.40
2014,09,24,00,53,15.40
2014,09,24,00,54,15.40
2014,09,24,00,55,15.40
2014,09,24,00,56,15.40
2014,09,24,00,57,15.40
2014,09,24,00,58,15.40
2014,09,24,00,59,15.40
2014,09,24,01,00,15.40
2014,09,24,01,01,15.40
2014,09,24,01,02,15.40
2014,09,24,01,03,15.40
2014,09,24,01,04,15.40
2014,09,24,01,05,15.30
2014,09,24,01,06,15.30
2014,09,24,01,07,15.30
2014,09,24,01,08,15.30
2014,09,24,01,09,15.30
2014,09,24,01,10,15.30
2014,09,24,01,11,15.30
2014,09,24,01,12,15.30
2014,09,24,01,13,15.30
2014,09,24,01,14,15.30
2014,09,24,01,15,15.30
2014,09,24,01,16,15.30
2014,09,24,01,17,15.30
2014,09,24,01,18,15.30
2014,09,24,01,19,15.30
2014,09,24,01,20,15.30
2014,09,24,01,21,15.30
2014,09,24,01,22,15.30
2014,09,24,01,23,15.30
2014,09,24,01,24,15.30
2014,09,24,01,25,15.30
2014,09,24,01,26,15.30
2014,09,24,01,27,15.30
2014,09,24,01,28,15.30
2014,09,24,01,29,15.30
2014,09,24,01,30,15.30
2014,09,24,01,31,15.30
2014,09,24,01,32,15.30
2014,09,24,01,33,15.30
2014,09,24,01,34,15.30
2014,09,24,01,35,15.30
2014,09,24,01,36,15.30
2014,09,24,01,37,15.30
2014,09,24,01,38,15.30
2014,09,24,01,39,15.30
2014,09,24,01,40,15.30
2014,09,24,01,41,15.30
2014,09,24,01,42,15.30
2014,09,24,01,43,15.30
2014,09,24,01,44,15.30
2014,09,24,01,45,15.30
2014,09,24,01,46,15.30
2014,09,24,01,47,15.30
2014,09,24,01,48,15.30
2014,09,24,01,49,15.30
2014,09,24,01,50,15.30
2014,09,24,01,51,15.30
2014,09,24,01,52,15.30
2014,09,24,01,53,15.30
2014,09,24,01,54,15.30
2014,09,24,01,55,15.30
2014,09,24,01,56,15.30
2014,09,24,01,57,15.20
2014,09,24,01,58,15.20
2014,09,24,01,59,15.20
2014,09,24,02,00,15.20
2014,09,24,02,01,15.20
2014,09,24,02,02,15.20
2014,09,24,02,03,15.20
2014,09,24,02,04,15.20
2014,09,24,02,05,15.20
2014,09,24,02,06,15.20
2014,09,24,02,07,15.20
2014,09,24,02,08,15.20
2014,09,24,02,09,15.20
2014,09,24,02,10,15.20
2014,09,24,02,11,15.10
2014,09,24,02,12,15.10
2014,09,24,02,13,15.10
2014,09,24,02,14,15.10
2014,09,24,02,15,15.10
2014,09,24,02,16,15.10
2014,09,24,02,17,15.10
2014,09,24,02,18,15.10
2014,09,24,02,19,15.10
2014,09,24,02,20,15.10
2014,09,24,02,21,15.10
2014,09,24,02,22,15.10
2014,09,24,02,23,15.10
2014,09,24,02,24,15.10
2014,09,24,02,25,15.10
2014,09,24,02,26,15.10
2014,09,24,02,27,15.10
2014,09,24,02,28,15.10
2014,09,24,02,29,15.10
2014,09,24,02,30,15.10
2014,09,24,02,31,15.10
2014,09,24,02,32,15.10
2014,09,24,02,33,15.10
2014,09,24,02,34,15.10
2014,09,24,02,35,15.10
2014,09,24,02,36,15.10
2014,09,24,02,37,15.10
2014,09,24,02,38,15.10
2014,09,24,02,39,15.10
2014,09,24,02,40,15.10
2014,09,24,02,41,15.00
2014,09,24,02,42,15.00
2014,09,24,02,43,15.00
2014,09,24,02,44,15.00
2014,09,24,02,45,15.00
2014,09,24,02,46,15.00
2014,09,24,02,47,15.00
2014,09,24,02,48,15.00
2014,09,24,02,49,15.00
2014,09,24,02,50,15.00
2014,09,24,02,51,15.00
2014,09,24,02,52,15.00
2014,09,24,02,53,15.00
2014,09,24,02,54,15.00
2014,09,24,02,55,15.00
2014,09,24,02,56,15.00
2014,09,24,02,57,15.00
2014,09,24,02,58,15.00
2014,09,24,02,59,15.00
2014,09,24,03,00,15.00
2014,09,24,03,01,15.00
2014,09,24,03,02,15.00
2014,09,24,03,03,15.00
2014,09,24,03,04,15.00
2014,09,24,03,05,15.00
2014,09,24,03,06,15.00
2014,09,24,03,07,15.00
2014,09,24,03,08,15.00
2014,09,24,03,09,15.00
2014,09,24,03,10,14.90
2014,09,24,03,11,14.90
2014,09,24,03,12,14.90
2014,09,24,03,13,14.90
2014,09,24,03,14,14.90
2014,09,24,03,15,14.90
2014,09,24,03,16,14.90
2014,09,24,03,17,14.90
2014,09,24,03,18,14.90
2014,09,24,03,19,14.90
2014,09,24,03,20,14.90
2014,09,24,03,21,14.90
2014,09,24,03,22,14.90
2014,09,24,03,23,14.90
2014,09,24,03,24,14.90
2014,09,24,03,25,14.90
2014,09,24,03,26,14.90
2014,09,24,03,27,14.90
2014,09,24,03,28,14.90
2014,09,24,03,29,14.90
2014,09,24,03,30,14.90
2014,09,24,03,31,14.90
2014,09,24,03,32,14.90
2014,09,24,03,33,14.90
2014,09,24,03,34,14.80
2014,09,24,03,35,14.80
2014,09,24,03,36,14.80
2014,09,24,03,37,14.70
2014,09,24,03,38,14.50
2014,09,24,03,39,14.40
2014,09,24,03,40,14.20
2014,09,24,03,41,14.00
2014,09,24,03,42,13.90
2014,09,24,03,43,13.70
2014,09,24,03,44,13.70
2014,09,24,03,45,13.60
2014,09,24,03,46,13.60
2014,09,24,03,47,13.60
2014,09,24,03,48,13.60
2014,09,24,03,49,13.60
2014,09,24,03,50,13.60
2014,09,24,03,51,13.60
2014,09,24,03,52,13.60
2014,09,24,03,53,13.70
2014,09,24,03,54,13.70
2014,09,24,03,55,13.70
2014,09,24,03,56,13.70
2014,09,24,03,57,13.70
2014,09,24,03,58,13.70
2014,09,24,03,59,13.70
2014,09,24,04,00,13.70
2014,09,24,04,01,13.70
2014,09,24,04,02,13.70
2014,09,24,04,03,13.70
2014,09,24,04,04,13.60
2014,09,24,04,05,13.60
2014,09,24,04,06,13.60
2014,09,24,04,07,13.60
2014,09,24,04,08,13.60
2014,09,24,04,09,13.60
2014,09,24,04,10,13.60
2014,09,24,04,11,13.60
2014,09,24,04,12,13.60
2014,09,24,04,13,13.60
2014,09,24,04,14,13.60
2014,09,24,04,15,13.70
2014,09,24,04,16,13.70
2014,09,24,04,17,13.70
2014,09,24,04,18,13.70
2014,09,24,04,19,13.70
2014,09,24,04,20,13.70
2014,09,24,04,21,13.70
2014,09,24,04,22,13.70
2014,09,24,04,23,13.70
2014,09,24,04,24,13.70
2014,09,24,04,25,13.60
2014,09,24,04,26,13.60
2014,09,24,04,27,13.60
2014,09,24,04,28,13.60
2014,09,24,04,29,13.60
2014,09,24,04,30,13.60
2014,09,24,04,31,13.60
2014,09,24,04,32,13.50
2014,09,24,04,33,13.50
2014,09,24,04,34,13.50
2014,09,24,04,35,13.50
2014,09,24,04,36,13.50
2014,09,24,04,37,13.40
2014,09,24,04,38,13.40
2014,09,24,04,39,13.40
2014,09,24,04,40,13.40
2014,09,24,04,41,13.40
2014,09,24,04,42,13.40
2014,09,24,04,43,13.40
2014,09,24,04,44,13.40
2014,09,24,04,45,13.40
2014,09,24,04,46,13.30
2014,09,24,04,47,13.30
2014,09,24,04,48,13.30
2014,09,24,04,49,13.30
2014,09,24,04,50,13.30
2014,09,24,04,51,13.30
2014,09,24,04,52,13.30
2014,09,24,04,53,13.30
2014,09,24,04,54,13.30
2014,09,24,04,55,13.30
2014,09,24,04,56,13.30
2014,09,24,04,57,13.30
2014,09,24,04,58,13.30
2014,09,24,04,59,13.30
2014,09,24,05,00,13.30
2014,09,24,05,01,13.30
2014,09,24,05,02,13.30
2014,09,24,05,03,13.30
2014,09,24,05,04,13.30
2014,09,24,05,05,13.30
2014,09,24,05,06,13.30
2014,09,24,05,07,13.30
2014,09,24,05,08,13.30
2014,09,24,05,09,13.30
2014,09,24,05,10,13.30
2014,09,24,05,11,13.30
2014,09,24,05,12,13.30
2014,09,24,05,13,13.30
2014,09,24,05,14,13.40
2014,09,24,05,15,13.40
2014,09,24,05,16,13.40
2014,09,24,05,17,13.50
2014,09,24,05,18,13.50
2014,09,24,05,19,13.50
2014,09,24,05,20,13.50
2014,09,24,05,21,13.50
2014,09,24,05,22,13.60
2014,09,24,05,23,13.60
2014,09,24,05,24,13.60
2014,09,24,05,25,13.60
2014,09,24,05,26,13.60
2014,09,24,05,27,13.60
2014,09,24,05,28,13.60
2014,09,24,05,29,13.60
2014,09,24,05,30,13.60
2014,09,24,05,31,13.60
2014,09,24,05,32,13.60
2014,09,24,05,33,13.70
2014,09,24,05,34,13.70
2014,09,24,05,35,13.70
2014,09,24,05,36,13.70
2014,09,24,05,37,13.70
2014,09,24,05,38,13.70
2014,09,24,05,39,13.70
2014,09,24,05,40,13.70
2014,09,24,05,41,13.70
2014,09,24,05,42,13.70
2014,09,24,05,43,13.70
2014,09,24,05,44,13.70
2014,09,24,05,45,13.80
2014,09,24,05,46,13.80
2014,09,24,05,47,13.80
2014,09,24,05,48,13.80
2014,09,24,05,49,13.80
2014,09,24,05,50,13.80
2014,09,24,05,51,13.70
2014,09,24,05,52,13.70
2014,09,24,05,53,13.80
2014,09,24,05,54,13.80
2014,09,24,05,55,13.80
2014,09,24,05,56,13.80
2014,09,24,05,57,13.80
2014,09,24,05,58,13.80
2014,09,24,05,59,13.80
2014,09,24,06,00,13.80
2014,09,24,06,01,13.80
2014,09,24,06,02,13.80
2014,09,24,06,03,13.80
2014,09,24,06,04,13.80
2014,09,24,06,05,13.80
2014,09,24,06,06,13.80
2014,09,24,06,07,13.80
2014,09,24,06,08,13.80
2014,09,24,06,09,13.80
2014,09,24,06,10,13.80
2014,09,24,06,11,13.80
2014,09,24,06,12,13.80
2014,09,24,06,13,13.80
2014,09,24,06,14,13.90
2014,09,24,06,15,13.90
2014,09,24,06,16,13.90
2014,09,24,06,17,13.90
2014,09,24,06,18,13.90
2014,09,24,06,19,13.90
2014,09,24,06,20,13.90
2014,09,24,06,21,13.90
2014,09,24,06,22,13.90
2014,09,24,06,23,13.90
2014,09,24,06,24,14.00
2014,09,24,06,25,14.00
2014,09,24,06,26,14.00
2014,09,24,06,27,14.00
2014,09,24,06,28,14.00
2014,09,24,06,29,14.00
2014,09,24,06,30,14.00
2014,09,24,06,31,14.00
2014,09,24,06,32,14.00
2014,09,24,06,33,14.00
2014,09,24,06,34,14.00
2014,09,24,06,35,14.00
2014,09,24,06,36,14.00
2014,09,24,06,37,14.00
2014,09,24,06,38,14.10
2014,09,24,06,39,14.10
2014,09,24,06,40,14.10
2014,09,24,06,41,14.10
2014,09,24,06,42,14.10
2014,09,24,06,43,14.10
2014,09,24,06,44,14.10
2014,09,24,06,45,14.10
2014,09,24,06,46,14.10
2014,09,24,06,47,14.10
2014,09,24,06,48,14.10
2014,09,24,06,49,14.10
2014,09,24,06,50,14.10
2014,09,24,06,51,14.20
2014,09,24,06,52,14.20
2014,09,24,06,53,14.20
2014,09,24,06,54,14.20
2014,09,24,06,55,14.20
2014,09,24,06,56,14.20
2014,09,24,06,57,14.20
2014,09,24,06,58,14.20
2014,09,24,06,59,14.20
2014,09,24,07,00,14.20
2014,09,24,07,01,14.20
2014,09,24,07,02,14.20
2014,09,24,07,03,14.20
2014,09,24,07,04,14.20
2014,09,24,07,05,14.20
2014,09,24,07,06,14.20
2014,09,24,07,07,14.20
2014,09,24,07,08,14.20
2014,09,24,07,09,14.20
2014,09,24,07,10,14.20
2014,09,24,07,11,14.20
2014,09,24,07,12,14.20
2014,09,24,07,13,14.20
2014,09,24,07,14,14.20
2014,09,24,07,15,14.20
2014,09,24,07,16,14.20
2014,09,24,07,17,14.20
2014,09,24,07,18,14.20
2014,09,24,07,19,14.30
2014,09,24,07,20,14.30
2014,09,24,07,21,14.30
2014,09,24,07,22,14.30
2014,09,24,07,23,14.30
2014,09,24,07,24,14.30
2014,09,24,07,25,14.30
2014,09,24,07,26,14.30
2014,09,24,07,27,14.30
2014,09,24,07,28,14.40
2014,09,24,07,29,14.40
2014,09,24,07,30,14.40
2014,09,24,07,31,14.40
2014,09,24,07,32,14.40
2014,09,24,07,33,14.40
2014,09,24,07,34,14.40
2014,09,24,07,35,14.40
2014,09,24,07,36,14.40
2014,09,24,07,37,14.40
2014,09,24,07,38,14.40
2014,09,24,07,39,14.40
2014,09,24,07,40,14.40
2014,09,24,07,41,14.40
2014,09,24,07,42,14.40
2014,09,24,07,43,14.40
2014,09,24,07,44,14.50
2014,09,24,07,45,14.50
2014,09,24,07,46,14.50
2014,09,24,07,47,14.50
2014,09,24,07,48,14.50
2014,09,24,07,49,14.50
2014,09,24,07,50,14.50
2014,09,24,07,51,14.50
2014,09,24,07,52,14.50
2014,09,24,07,53,14.50
2014,09,24,07,54,14.60
2014,09,24,07,55,14.60
2014,09,24,07,56,14.60
2014,09,24,07,57,14.60
2014,09,24,07,58,14.60
2014,09,24,07,59,14.60
2014,09,24,08,00,14.60
2014,09,24,08,01,14.60
2014,09,24,08,02,14.60
2014,09,24,08,03,14.60
2014,09,24,08,04,14.60
2014,09,24,08,05,14.60
2014,09,24,08,06,14.60
2014,09,24,08,07,14.60
2014,09,24,08,08,14.60
2014,09,24,08,09,14.60
2014,09,24,08,10,14.60
2014,09,24,08,11,14.70
2014,09,24,08,12,14.70
2014,09,24,08,13,14.70
2014,09,24,08,14,14.70
2014,09,24,08,15,14.70
2014,09,24,08,16,14.70
2014,09,24,08,17,14.70
2014,09,24,08,18,14.70
2014,09,24,08,19,14.70
2014,09,24,08,20,14.70
2014,09,24,08,21,14.70
2014,09,24,08,22,14.70
2014,09,24,08,23,14.70
2014,09,24,08,24,14.70
2014,09,24,08,25,14.70
2014,09,24,08,26,14.70
2014,09,24,08,27,14.70
2014,09,24,08,28,14.70
2014,09,24,08,29,14.70
2014,09,24,08,30,14.70
2014,09,24,08,31,14.70
2014,09,24,08,32,14.70
2014,09,24,08,33,14.70
2014,09,24,08,34,14.70
2014,09,24,08,35,14.70
2014,09,24,08,36,14.80
2014,09,24,08,37,14.80
2014,09,24,08,38,14.80
2014,09,24,08,39,14.80
2014,09,24,08,40,14.80
2014,09,24,08,41,14.80
2014,09,24,08,42,14.80
2014,09,24,08,43,14.80
2014,09,24,08,44,14.80
2014,09,24,08,45,14.80
2014,09,24,08,46,14.80
2014,09,24,08,47,14.80
2014,09,24,08,48,14.80
2014,09,24,08,49,14.80
2014,09,24,08,50,14.80
2014,09,24,08,51,14.80
2014,09,24,08,52,14.80
2014,09,24,08,53,14.80
2014,09,24,08,54,14.80
2014,09,24,08,55,14.80
2014,09,24,08,56,14.80
2014,09,24,08,57,14.80
2014,09,24,08,58,14.80
2014,09,24,08,59,14.80
2014,09,24,09,00,14.70
2014,09,24,09,01,14.70
2014,09,24,09,02,14.70
2014,09,24,09,03,14.70
2014,09,24,09,04,14.70
2014,09,24,09,05,14.70
2014,09,24,09,06,14.60
2014,09,24,09,07,14.60
2014,09,24,09,08,14.50
2014,09,24,09,09,14.50
2014,09,24,09,10,14.50
2014,09,24,09,11,14.50
2014,09,24,09,12,14.40
2014,09,24,09,13,14.40
2014,09,24,09,14,14.40
2014,09,24,09,15,14.20
2014,09,24,09,16,14.20
2014,09,24,09,17,14.20
2014,09,24,09,18,14.10
2014,09,24,09,19,14.10
2014,09,24,09,20,14.00
2014,09,24,09,21,14.00
2014,09,24,09,22,14.00
2014,09,24,09,23,14.00
2014,09,24,09,24,13.90
2014,09,24,09,25,13.90
2014,09,24,09,26,13.90
2014,09,24,09,27,13.90
2014,09,24,09,28,13.90
2014,09,24,09,29,13.90
2014,09,24,09,30,13.90
2014,09,24,09,31,13.90
2014,09,24,09,32,13.90
2014,09,24,09,33,13.90
2014,09,24,09,34,13.90
2014,09,24,09,35,13.90
2014,09,24,09,36,13.90
2014,09,24,09,37,13.90
2014,09,24,09,38,14.00
2014,09,24,09,39,14.00
2014,09,24,09,40,14.00
2014,09,24,09,41,14.00
2014,09,24,09,42,14.00
2014,09,24,09,43,14.00
2014,09,24,09,44,13.90
2014,09,24,09,45,13.90
2014,09,24,09,46,13.90
2014,09,24,09,47,14.00
2014,09,24,09,48,14.00
2014,09,24,09,49,13.90
2014,09,24,09,50,13.90
2014,09,24,09,51,13.90
2014,09,24,09,52,13.90
2014,09,24,09,53,13.90
2014,09,24,09,54,13.90
2014,09,24,09,55,13.90
2014,09,24,09,56,14.00
2014,09,24,09,57,14.00
2014,09,24,09,58,14.00
2014,09,24,09,59,14.10
2014,09,24,10,00,14.10
2014,09,24,10,01,14.10
2014,09,24,10,02,14.10
2014,09,24,10,03,14.10
2014,09,24,10,04,14.10
2014,09,24,10,05,14.10
2014,09,24,10,06,14.00
2014,09,24,10,07,14.00
2014,09,24,10,08,14.00
2014,09,24,10,09,13.90
2014,09,24,10,10,13.90
2014,09,24,10,11,13.90
2014,09,24,10,12,13.80
2014,09,24,10,13,13.80
2014,09,24,10,14,13.80
2014,09,24,10,15,13.80
2014,09,24,10,16,13.80
2014,09,24,10,17,13.80
2014,09,24,10,18,13.80
2014,09,24,10,19,13.80
2014,09,24,10,20,13.80
2014,09,24,10,21,13.80
2014,09,24,10,22,13.80
2014,09,24,10,23,13.70
2014,09,24,10,24,13.80
2014,09,24,10,25,13.80
2014,09,24,10,26,13.80
2014,09,24,10,27,13.80
2014,09,24,10,28,13.80
2014,09,24,10,29,13.80
2014,09,24,10,30,13.90
2014,09,24,10,31,13.90
2014,09,24,10,32,13.90
2014,09,24,10,33,14.00
2014,09,24,10,34,14.00
2014,09,24,10,35,14.00
2014,09,24,10,36,14.00
2014,09,24,10,37,14.10
2014,09,24,10,38,14.20
2014,09,24,10,39,14.20
2014,09,24,10,40,14.20
2014,09,24,10,41,14.30
2014,09,24,10,42,14.30
2014,09,24,10,43,14.30
2014,09,24,10,44,14.30
2014,09,24,10,45,14.20
2014,09,24,10,46,14.20
2014,09,24,10,47,14.20
2014,09,24,10,48,14.20
2014,09,24,10,49,14.20
2014,09,24,10,50,14.20
2014,09,24,10,51,14.30
2014,09,24,10,52,14.40
2014,09,24,10,53,14.40
2014,09,24,10,54,14.40
2014,09,24,10,55,14.40
2014,09,24,10,56,14.40
2014,09,24,10,57,14.40
2014,09,24,10,58,14.50
2014,09,24,10,59,14.50
2014,09,24,11,00,14.60
2014,09,24,11,01,14.60
2014,09,24,11,02,14.60
2014,09,24,11,03,14.70
2014,09,24,11,04,14.60
2014,09,24,11,05,14.50
2014,09,24,11,06,14.50
2014,09,24,11,07,14.40
2014,09,24,11,08,14.30
2014,09,24,11,09,14.20
2014,09,24,11,10,14.20
2014,09,24,11,11,14.20
2014,09,24,11,12,14.10
2014,09,24,11,13,14.10
2014,09,24,11,14,14.00
2014,09,24,11,15,14.00
2014,09,24,11,16,13.90
2014,09,24,11,17,13.90
2014,09,24,11,18,13.80
2014,09,24,11,19,13.70
2014,09,24,11,20,13.70
2014,09,24,11,21,13.70
2014,09,24,11,22,13.70
2014,09,24,11,23,13.70
2014,09,24,11,24,13.70
2014,09,24,11,25,13.70
2014,09,24,11,26,13.70
2014,09,24,11,27,13.70
2014,09,24,11,28,13.70
2014,09,24,11,29,13.70
2014,09,24,11,30,13.70
2014,09,24,11,31,13.70
2014,09,24,11,32,13.70
2014,09,24,11,33,13.70
2014,09,24,11,34,13.70
2014,09,24,11,35,13.70
2014,09,24,11,36,13.70
2014,09,24,11,37,13.60
2014,09,24,11,38,13.50
2014,09,24,11,39,13.40
2014,09,24,11,40,13.30
2014,09,24,11,41,13.30
2014,09,24,11,42,13.20
2014,09,24,11,43,13.20
2014,09,24,11,44,13.20
2014,09,24,11,45,13.20
2014,09,24,11,46,13.20
2014,09,24,11,47,13.30
2014,09,24,11,48,13.40
2014,09,24,11,49,13.50
2014,09,24,11,50,13.60
2014,09,24,11,51,13.70
2014,09,24,11,52,13.70
2014,09,24,11,53,13.70
2014,09,24,11,54,13.80
2014,09,24,11,55,13.80
2014,09,24,11,56,13.60
2014,09,24,11,57,13.40
2014,09,24,11,58,13.30
2014,09,24,11,59,13.30
2014,09,24,12,00,13.30
2014,09,24,12,01,13.30
2014,09,24,12,02,13.30
2014,09,24,12,03,13.40
2014,09,24,12,04,13.40
2014,09,24,12,05,13.50
2014,09,24,12,06,13.50
2014,09,24,12,07,13.50
2014,09,24,12,08,13.50
2014,09,24,12,09,13.60
2014,09,24,12,10,13.60
2014,09,24,12,11,13.60
2014,09,24,12,12,13.60
2014,09,24,12,13,13.60
2014,09,24,12,14,13.60
2014,09,24,12,15,13.70
2014,09,24,12,16,13.70
2014,09,24,12,17,13.70
2014,09,24,12,18,13.70
2014,09,24,12,19,13.70
2014,09,24,12,20,13.80
2014,09,24,12,21,13.90
2014,09,24,12,22,14.00
2014,09,24,12,23,14.00
2014,09,24,12,24,14.10
2014,09,24,12,25,14.20
2014,09,24,12,26,14.30
2014,09,24,12,27,14.30
2014,09,24,12,28,14.30
2014,09,24,12,29,14.40
2014,09,24,12,30,14.50
2014,09,24,12,31,14.60
2014,09,24,12,32,14.70
2014,09,24,12,33,14.80
2014,09,24,12,34,14.80
2014,09,24,12,35,14.80
2014,09,24,12,36,14.90
2014,09,24,12,37,14.90
2014,09,24,12,38,14.90
2014,09,24,12,39,14.90
2014,09,24,12,40,14.90
2014,09,24,12,41,15.00
2014,09,24,12,42,15.00
2014,09,24,12,43,14.90
2014,09,24,12,44,14.90
2014,09,24,12,45,14.90
2014,09,24,12,46,14.90
2014,09,24,12,47,14.90
2014,09,24,12,48,15.00
2014,09,24,12,49,15.10
2014,09,24,12,50,15.20
2014,09,24,12,51,15.30
2014,09,24,12,52,15.30
2014,09,24,12,53,15.50
2014,09,24,12,54,15.60
2014,09,24,12,55,15.70
2014,09,24,12,56,15.70
2014,09,24,12,57,15.80
2014,09,24,12,58,15.70
2014,09,24,12,59,15.80
2014,09,24,13,00,15.80
2014,09,24,13,01,15.70
2014,09,24,13,02,15.70
2014,09,24,13,03,15.70
2014,09,24,13,04,15.70
2014,09,24,13,05,15.80
2014,09,24,13,06,15.80
2014,09,24,13,07,15.80
2014,09,24,13,08,15.90
2014,09,24,13,09,15.90
2014,09,24,13,10,16.00
2014,09,24,13,11,16.10
2014,09,24,13,12,16.10
2014,09,24,13,13,16.10
2014,09,24,13,14,16.10
2014,09,24,13,15,16.10
2014,09,24,13,16,16.10
2014,09,24,13,17,16.20
2014,09,24,13,18,16.30
2014,09,24,13,19,16.30
2014,09,24,13,20,16.40
2014,09,24,13,21,16.40
2014,09,24,13,22,16.50
2014,09,24,13,23,16.60
2014,09,24,13,24,16.60
2014,09,24,13,25,16.70
2014,09,24,13,26,16.60
2014,09,24,13,27,16.60
2014,09,24,13,28,16.60
2014,09,24,13,29,16.70
2014,09,24,13,30,16.70
2014,09,24,13,31,16.80
2014,09,24,13,32,16.90
2014,09,24,13,33,17.00
2014,09,24,13,34,17.00
2014,09,24,13,35,17.10
2014,09,24,13,36,17.10
2014,09,24,13,37,17.10
2014,09,24,13,38,17.10
2014,09,24,13,39,17.20
2014,09,24,13,40,17.20
2014,09,24,13,41,17.30
2014,09,24,13,42,17.40
2014,09,24,13,43,17.50
2014,09,24,13,44,17.60
2014,09,24,13,45,17.60
2014,09,24,13,46,17.60
2014,09,24,13,47,17.60
2014,09,24,13,48,17.70
2014,09,24,13,49,17.70
2014,09,24,13,50,17.80
2014,09,24,13,51,17.90
2014,09,24,13,52,17.90
2014,09,24,13,53,17.90
2014,09,24,13,54,17.90
2014,09,24,13,55,18.00
2014,09,24,13,56,18.10
2014,09,24,13,57,18.10
2014,09,24,13,58,18.10
2014,09,24,13,59,18.10
2014,09,24,14,00,18.10
2014,09,24,14,01,18.10
2014,09,24,14,02,18.10
2014,09,24,14,03,18.10
2014,09,24,14,04,18.10
2014,09,24,14,05,18.10
2014,09,24,14,06,18.00
2014,09,24,14,07,17.90
2014,09,24,14,08,17.90
2014,09,24,14,09,17.80
2014,09,24,14,10,17.70
2014,09,24,14,11,17.60
2014,09,24,14,12,17.60
2014,09,24,14,13,17.60
2014,09,24,14,14,17.50
2014,09,24,14,15,17.50
2014,09,24,14,16,17.50
2014,09,24,14,17,17.50
2014,09,24,14,18,17.50
2014,09,24,14,19,17.50
2014,09,24,14,20,17.60
2014,09,24,14,21,17.70
2014,09,24,14,22,17.70
2014,09,24,14,23,17.80
2014,09,24,14,24,17.80
2014,09,24,14,25,17.70
2014,09,24,14,26,17.70
2014,09,24,14,27,17.60
2014,09,24,14,28,17.60
2014,09,24,14,29,17.60
2014,09,24,14,30,17.60
2014,09,24,14,31,17.50
2014,09,24,14,32,17.50
2014,09,24,14,33,17.40
2014,09,24,14,34,17.30
2014,09,24,14,35,17.30
2014,09,24,14,36,17.30
2014,09,24,14,37,17.30
2014,09,24,14,38,17.30
2014,09,24,14,39,17.20
2014,09,24,14,40,17.10
2014,09,24,14,41,17.00
2014,09,24,14,42,17.00
2014,09,24,14,43,16.90
2014,09,24,14,44,16.90
2014,09,24,14,45,16.80
2014,09,24,14,46,16.70
2014,09,24,14,47,16.70
2014,09,24,14,48,16.70
2014,09,24,14,49,16.70
2014,09,24,14,50,16.70
2014,09,24,14,51,16.70
2014,09,24,14,52,16.60
2014,09,24,14,53,16.60
2014,09,24,14,54,16.60
2014,09,24,14,55,16.40
2014,09,24,14,56,16.40
2014,09,24,14,57,16.40
2014,09,24,14,58,16.40
2014,09,24,14,59,16.40
2014,09,24,15,00,16.50
2014,09,24,15,01,16.60
2014,09,24,15,02,16.60
2014,09,24,15,03,16.60
2014,09,24,15,04,16.70
2014,09,24,15,05,16.70
2014,09,24,15,06,16.70
2014,09,24,15,07,16.70
2014,09,24,15,08,16.70
2014,09,24,15,09,16.70
2014,09,24,15,10,16.70
2014,09,24,15,11,16.70
2014,09,24,15,12,16.70
2014,09,24,15,13,16.70
2014,09,24,15,14,16.70
2014,09,24,15,15,16.70
2014,09,24,15,16,16.70
2014,09,24,15,17,16.70
2014,09,24,15,18,16.70
2014,09,24,15,19,16.80
2014,09,24,15,20,16.80
2014,09,24,15,21,16.80
2014,09,24,15,22,16.90
2014,09,24,15,23,16.90
2014,09,24,15,24,17.00
2014,09,24,15,25,17.00
2014,09,24,15,26,17.00
2014,09,24,15,27,17.10
2014,09,24,15,28,17.20
2014,09,24,15,29,17.20
2014,09,24,15,30,17.20
2014,09,24,15,31,17.20
2014,09,24,15,32,17.20
2014,09,24,15,33,17.10
2014,09,24,15,34,17.10
2014,09,24,15,35,17.10
2014,09,24,15,36,17.10
2014,09,24,15,37,17.20
2014,09,24,15,38,17.20
2014,09,24,15,39,17.20
2014,09,24,15,40,17.20
2014,09,24,15,41,17.20
2014,09,24,15,42,17.20
2014,09,24,15,43,17.20
2014,09,24,15,44,17.20
2014,09,24,15,45,17.20
2014,09,24,15,46,17.20
2014,09,24,15,47,17.20
2014,09,24,15,48,17.20
2014,09,24,15,49,17.20
2014,09,24,15,50,17.30
2014,09,24,15,51,17.30
2014,09,24,15,52,17.30
2014,09,24,15,53,17.30
2014,09,24,15,54,17.30
2014,09,24,15,55,17.30
2014,09,24,15,56,17.30
2014,09,24,15,57,17.30
2014,09,24,15,58,17.20
2014,09,24,15,59,17.20
2014,09,24,16,00,17.20
2014,09,24,16,01,17.20
2014,09,24,16,02,17.20
2014,09,24,16,03,17.20
2014,09,24,16,04,17.20
2014,09,24,16,05,17.20
2014,09,24,16,06,17.20
2014,09,24,16,07,17.20
2014,09,24,16,08,17.10
2014,09,24,16,09,17.10
2014,09,24,16,10,17.10
2014,09,24,16,11,17.10
2014,09,24,16,12,17.10
2014,09,24,16,13,17.10
2014,09,24,16,14,17.10
2014,09,24,16,15,17.20
2014,09,24,16,16,17.20
2014,09,24,16,17,17.20
2014,09,24,16,18,17.20
2014,09,24,16,19,17.20
2014,09,24,16,20,17.20
2014,09,24,16,21,17.20
2014,09,24,16,22,17.10
2014,09,24,16,23,17.10
2014,09,24,16,24,17.00
2014,09,24,16,25,17.00
2014,09,24,16,26,17.00
2014,09,24,16,27,16.90
2014,09,24,16,28,17.00
2014,09,24,16,29,17.00
2014,09,24,16,30,17.00
2014,09,24,16,31,17.10
2014,09,24,16,32,17.20
2014,09,24,16,33,17.20
2014,09,24,16,34,17.20
2014,09,24,16,35,17.20
2014,09,24,16,36,17.10
2014,09,24,16,37,17.10
2014,09,24,16,38,17.10
2014,09,24,16,39,17.10
2014,09,24,16,40,17.10
2014,09,24,16,41,17.10
2014,09,24,16,42,17.10
2014,09,24,16,43,17.10
2014,09,24,16,44,17.10
2014,09,24,16,45,17.10
2014,09,24,16,46,17.10
2014,09,24,16,47,17.10
2014,09,24,16,48,17.20
2014,09,24,16,49,17.20
2014,09,24,16,50,17.10
2014,09,24,16,51,17.10
2014,09,24,16,52,17.10
2014,09,24,16,53,17.10
2014,09,24,16,54,17.10
2014,09,24,16,55,17.00
2014,09,24,16,56,17.00
2014,09,24,16,57,17.00
2014,09,24,16,58,16.90
2014,09,24,16,59,16.90
2014,09,24,17,00,16.90
2014,09,24,17,01,16.90
2014,09,24,17,02,16.90
2014,09,24,17,03,16.90
2014,09,24,17,04,16.90
2014,09,24,17,05,17.00
2014,09,24,17,06,17.00
2014,09,24,17,07,17.00
2014,09,24,17,08,17.00
2014,09,24,17,09,17.10
2014,09,24,17,10,17.00
2014,09,24,17,11,17.00
2014,09,24,17,12,17.00
2014,09,24,17,13,16.90
2014,09,24,17,14,16.90
2014,09,24,17,15,16.90
2014,09,24,17,16,16.90
2014,09,24,17,17,16.80
2014,09,24,17,18,16.80
2014,09,24,17,19,16.80